Regional Weather Roundup
Issued by NWS Cleveland, OH

Home | Current Version | Previous Version | Graphics & Text | Print | Product List | Glossary On
Versions: 1 2 3 4 5 6 7 8 9 10 11 12 13 14 15 16 17 18 19 20 21 22 23 24 25 26 27 28 29 30 31 32 33 34 35 36 37 38 39 40 41 42 43 44 45 46 47 48 49 50
000
ASUS41 KCLE 010500
RWRCLE
OHIO REGIONAL WEATHER ROUNDUP
NATIONAL WEATHER SERVICE WILMINGTON, OH
100 AM EDT WED JUN 01 2016

NOTE: "FAIR" INDICATES FEW OR NO CLOUDS BELOW 12,000 FEET WITH NO
SIGNIFICANT WEATHER AND/OR OBSTRUCTIONS TO VISIBILITY.

OHZ001>008-015>018-024>027-034-035-043-044-010600-
   NORTHWEST OHIO

CITY           SKY/WX    TMP DP  RH WIND       PRES   REMARKS
DEFIANCE       FAIR      66  49  54 E8        30.02S
FINDLAY        FAIR      68  47  46 E8        30.02R
TOLEDO EXPRESS FAIR      63  52  67 NE3       30.05R
TOLEDO EXEC    FAIR      63  54  72 S3        30.06R
LIMA           FAIR      68  48  48 E10       30.02R
$$

OHZ009>014-019>023-028>033-038-089-010600-
   NORTHEAST OHIO

CITY           SKY/WX    TMP DP  RH WIND       PRES   REMARKS
CLE-HOPKINS    MOCLDY    69  48  47 E8        30.06S
CLE-LAKEFRONT  FAIR      67  53  61 NE6       30.03F
CUY CO. ARPT   NOT AVBL
LORAIN-ELYRIA  FAIR      64  53  67 NE5       30.05S
ASHTABULA      FAIR      55  53  93 CALM      30.05F
AKRON-CANTON   FAIR      64  49  57 NE6       30.04S
WOOSTER        NOT AVBL
MANSFIELD      FAIR      64  50  60 NE5       30.05S
YOUNGSTOWN     MOCLDY    61  50  67 NE3       30.04S
$$

OHZ042-051>053-060>062-070>072-077>081-010600-
  SOUTHWEST OHIO

CITY           SKY/WX    TMP DP  RH WIND       PRES   REMARKS
CINC-COVINGTON FAIR      67  61  81 CALM      29.99S
CINC-LUNKEN    FAIR      63  63 100 CALM      29.99S
HAMILTON       MOCLDY    66  62  87 CALM      29.99S
DAYTON         NOT AVBL
WRIGHT-PAT AFB NOT AVBL
DAYTON GENERAL FAIR      73  59  61 E8        29.99F
WILMINGTON     MOCLDY    72  62  71 E6        30.01R
$$

OHZ036-037-039>041-045>050-054>059-063>069-073>076-082>088-010600-
  CENTRAL AND SOUTHEAST OHIO

CITY           SKY/WX    TMP DP  RH WIND       PRES   REMARKS
COLUMBUS       FAIR      70  57  63 NE6       30.01R
OSU AIRPORT    FAIR      70  55  59 E5        30.01S
BOLTON FIELD   NOT AVBL
RICKENBACK AFB NOT AVBL
NEWARK         FAIR      70  57  63 N3        30.01S
MARION         FAIR      66  50  56 CALM      30.03S
LANCASTER      FAIR      69  60  73 N3        30.02R
ZANESVILLE     FAIR      72  58  61 CALM      30.01S
NEW PHILLY     FAIR      66  55  67 CALM      30.03R
$$



USA.gov is the U.S. government's official web portal to all federal, state and local government web resources and services.